Regional Weather Roundup
Issued by NWS Cleveland, OH

Home | Current Version | Previous Version | Text Only | Print | Product List | Glossary Off
Versions: 1 2 3 4 5 6 7 8 9 10 11 12 13 14 15 16 17 18 19 20 21 22 23 24 25 26 27 28 29 30 31 32 33 34 35 36 37 38 39 40 41 42 43 44 45 46 47 48 49 50

000
ASUS41 KCLE 231610
RWRCLE
OHIO REGIONAL WEATHER ROUNDUP
NATIONAL WEATHER SERVICE WILMINGTON, OH
1100 AM EST TUE JAN 23 2018

NOTE: "FAIR" INDICATES FEW OR NO CLOUDS BELOW 12,000 FEET WITH NO
SIGNIFICANT WEATHER AND/OR OBSTRUCTIONS TO VISIBILITY.

OHZ001>008-015>018-024>027-034-035-043-044-231700-
   NORTHWEST OHIO

CITY           SKY/WX    TMP DP  RH WIND       PRES   REMARKS
DEFIANCE       LGT RAIN  38  33  82 SW15G23   29.66R
FINDLAY        CLOUDY    38  32  79 SW21G29   29.67R
TOLEDO EXPRESS CLOUDY    39  35  86 SW16G26   29.62R
TOLEDO EXEC    PTSUNNY   40  34  79 SW22G29   29.64R
LIMA           NOT AVBL
$$

OHZ009>014-019>023-028>033-038-089-231700-
   NORTHEAST OHIO

CITY           SKY/WX    TMP DP  RH WIND       PRES   REMARKS
CLE-HOPKINS    LGT RAIN  40  36  86 SW16G26   29.67R
CLE-LAKEFRONT  LGT RAIN  40  34  79 SW21G29   29.64R
CUY CO. ARPT   NOT AVBL
LORAIN-ELYRIA  LGT RAIN  38  32  79 W18       29.66R
ASHTABULA      CLOUDY    42  35  76 W20G25    29.62R
AKRON-CANTON   CLOUDY    40  32  73 SW17      29.67R
WOOSTER        LGT RAIN  38  34  85 SW16G22   29.67R
MANSFIELD      CLOUDY    37  34  89 SW18G29   29.67R
YOUNGSTOWN     CLOUDY    41  35  79 W15       29.63S
$$

OHZ042-051>053-060>062-070>072-077>081-231700-
  SOUTHWEST OHIO

CITY           SKY/WX    TMP DP  RH WIND       PRES   REMARKS
CINC-COVINGTON CLOUDY    38  33  82 SW14G24   29.84R
CINC-LUNKEN    CLOUDY    40  33  76 SW22      29.86R
HAMILTON       CLOUDY    38  34  85 SW9       29.84R
DAYTON         PTSUNNY   38  34  85 W22       29.77R
WRIGHT-PAT AFB CLOUDY    38  29  70 SW15G29   29.77R
DAYTON GENERAL LGT RAIN  36  31  82 SW14G24   29.79R
WILMINGTON     CLOUDY    37  34  89 W21G28    29.79R
$$

OHZ036-037-039>041-045>050-054>059-063>069-073>076-082>088-231700-
  CENTRAL AND SOUTHEAST OHIO

CITY           SKY/WX    TMP DP  RH WIND       PRES   REMARKS
COLUMBUS       CLOUDY    39  34  82 SW14G24   29.76R
OSU AIRPORT    CLOUDY    38  34  85 SW18G28   29.75R
BOLTON FIELD   CLOUDY    37  34  87 W24G30    29.77R
RICKENBACK AFB CLOUDY    37  35  92 SW20      29.78R
NEWARK         LGT RAIN  37  32  82 W15G29    29.75R
MARION         CLOUDY    37  32  82 SW15G23   29.71R
LANCASTER      LGT RAIN  37  32  82 W16G26    29.79R
ZANESVILLE     CLOUDY    41  31  67 SW16G24   29.75R
NEW PHILLY     CLOUDY    40  32  73 SW12      29.72R
$$




USA.gov is the U.S. government's official web portal to all federal, state and local government web resources and services.